Regional Weather Roundup
Issued by NWS Sioux Falls, SD

Home | Current Version | Previous Version | Text Only | Print | Product List | Glossary On
Versions: 1 2 3 4 5 6 7 8 9 10 11 12 13 14 15 16 17 18 19 20 21 22 23 24 25 26 27 28 29 30 31 32 33 34 35 36 37 38 39 40 41 42 43 44 45 46 47 48 49 50
000
ASUS43 KFSD 212010
RWRFSD

WEATHER ROUNDUP FOR SE SOUTH DAKOTA/SW MINNESOTA/NW IOWA
NATIONAL WEATHER SERVICE SIOUX FALLS SD
300 PM CDT THU SEP 21 2017

NOTE: "FAIR" INDICATES FEW OR NO CLOUDS BELOW 12,000 FEET WITH NO
SIGNIFICANT WEATHER AND OR OBSTRUCTIONS TO VISIBILITY.


SDZ038>040-050-052>070-212100-
SOUTHEAST SOUTH DAKOTA

CITY           SKY/WX    TMP DP  RH WIND       PRES   REMARKS
BROOKINGS      PTSUNNY   82  71  69 S24G35    29.72F
CHAMBERLAIN    SUNNY     87  63  44 SE20      29.64S
HURON          SUNNY     81  67  62 S14G24    29.65F
MADISON        CLOUDY    81  75  83 S18G28    29.72F
MITCHELL       SUNNY     85  68  56 S18G25    29.66F
SIOUX FALLS    PTSUNNY   84  73  69 S18G35    29.71F
WINNER         FAIR      87  57  35 S22       29.63F
YANKTON        SUNNY     86  69  56 SE22      29.69F
$$

MNZ071-072-080-081-089-090-097-098-212100-
SOUTHWEST MINNESOTA

CITY           SKY/WX    TMP DP  RH WIND       PRES   REMARKS
FAIRMONT       PTSUNNY   82  72  71 SE17      29.81F
JACKSON        PTSUNNY   81  70  69 S20G30    29.81F
LUVERNE        MOSUNNY   84  68  58 S21G30    29.74F
MARSHALL       PTSUNNY   82  69  64 S16       29.75S
MONTEVIDEO     SUNNY     82  66  57 S16G22    29.74F
PIPESTONE      MOSUNNY   82  72  69 S16G29    29.75F
REDWOOD FALLS  SUNNY     83  66  56 SE24G30   29.75F
TRACY          MOSUNNY   83  70  64 SE16G24   29.76F
WORTHINGTON    CLOUDY    84  72  67 S21G28    29.78F
$$

IAZ001>003-012>014-020>022-031-032-NEZ013-014-SDZ071-212100-
NORTHWEST IOWA

CITY           SKY/WX    TMP DP  RH WIND       PRES   REMARKS
CHEROKEE       MOSUNNY   82  73  73 SE17G26   29.78F
DENISON        MOSUNNY   84  72  65 S17G30    29.81F
ESTHERVILLE    CLOUDY    81  72  74 S17G26    29.80F
LE MARS        PTSUNNY   88  72  58 S28       29.73F
ORANGE CITY    MOSUNNY   84  75  74 S15G23    29.75F
SHELDON        PTSUNNY   84  73  70 S18G31    29.75F
SIOUX CITY     MOSUNNY   88  73  61 S17G28    29.73F HX  95
SPENCER        MOSUNNY   83  72  69 S21       29.79F
STORM LAKE     MOSUNNY   82  70  65 S14G31    29.81F
$$

ABBREVIATIONS USED IN REMARKS
   TC - TEMPERATURE IN CELSIUS
  WCI - WIND CHILL INDEX
   HX - HEAT INDEX
  VSB - VISIBILITY





USA.gov is the U.S. government's official web portal to all federal, state and local government web resources and services.